Simultaneous Nadir Overpasses (SNOs) Predictions

Prediction of SNOs between METOP-B and NPP Satellite Orbit:

Table of predicted SNOs for the next 14.0 days since TLE Epoch: 4/20/2022
Index Date (METOP-B) Time (METOP-B) Lat,Lon (METOP-B) SZA (METOP-B ) Date (NPP) Time (NPP) Lat,Lon (NPP) SZA (NPP ) Distance(km) Time Diff (sec)
1 05/03/2022 07:18:58 73.52, 63.76 57.82 05/03/2022 07:17:52 73.53, 60.73 57.98 95.60 66
2 05/03/2022 08:09:42 -73.41,-129.17 122.30 05/03/2022 08:08:34 -73.43,-131.72 122.15 80.78 68
3 05/03/2022 09:00:26 73.20, 37.69 57.50 05/03/2022 08:59:15 73.19, 36.12 57.58 50.46 71
4 05/03/2022 09:51:09 -73.13,-155.12 122.57 05/03/2022 09:49:58 -73.14,-156.44 122.50 42.73 71
5 05/03/2022 10:41:53 72.92, 11.76 57.23 05/03/2022 10:40:39 72.89, 11.39 57.24 12.58 74
6 05/03/2022 11:32:37 -72.81, 178.85 122.88 05/03/2022 11:31:22 -72.84, 178.82 122.84 3.90 75
7 05/03/2022 12:23:17 72.80, -13.84 57.10 05/03/2022 12:22:07 72.80, -13.79 57.11 1.65 70
8 05/03/2022 13:13:59 -72.79, 153.47 122.93 05/03/2022 13:12:51 -72.80, 153.53 122.90 2.54 68
9 05/03/2022 14:04:38 72.82, -39.12 57.10 05/03/2022 14:03:37 72.81, -39.18 57.10 2.68 61
10 05/03/2022 14:55:20 -72.81, 128.19 122.92 05/03/2022 14:54:21 -72.81, 128.14 122.92 1.73 59
11 05/03/2022 15:46:00 72.80, -64.50 57.06 05/03/2022 15:45:07 72.82, -64.57 57.09 2.71 53
12 05/03/2022 16:36:42 -72.79, 102.80 122.96 05/03/2022 16:35:51 -72.81, 102.75 122.93 2.89 51
13 05/03/2022 17:27:22 72.78, -89.89 57.02 05/03/2022 17:26:36 72.77, -89.86 57.02 1.37 46
14 05/03/2022 18:18:04 -72.77, 77.41 123.00 05/03/2022 18:17:20 -72.77, 77.47 123.00 1.75 44
15 05/03/2022 19:08:44 72.76,-115.28 56.98 05/03/2022 19:08:06 72.78,-115.25 57.01 2.88 38
16 05/03/2022 19:59:25 -72.80, 52.13 123.00 05/03/2022 19:58:50 -72.78, 52.08 123.01 2.86 35
17 05/03/2022 20:50:05 72.79,-140.56 56.99 05/03/2022 20:49:36 72.79,-140.64 57.00 2.56 29
18 05/03/2022 21:40:47 -72.78, 26.75 123.04 05/03/2022 21:40:20 -72.79, 26.69 123.02 2.27 27
19 05/03/2022 22:31:27 72.76,-165.94 56.94 05/03/2022 22:31:05 72.75,-165.92 56.93 2.08 22
20 05/03/2022 23:22:09 -72.75, 1.36 123.08 05/03/2022 23:21:49 -72.74, 1.40 123.09 1.79 20
21 05/04/2022 00:12:49 72.74, 168.67 56.90 05/04/2022 00:12:35 72.75, 168.69 56.92 1.60 14
22 05/04/2022 01:03:31 -72.73, -24.02 123.12 05/04/2022 01:03:19 -72.75, -23.99 123.10 2.49 12
23 05/04/2022 01:54:10 72.77, 143.39 56.91 05/04/2022 01:54:05 72.76, 143.30 56.91 3.02 5



Historial Predications of SNOs between METOP-B and NPP
